Time,TemperatureF,DewpointF,PressureIn,WindDirection,WindDirectionDegrees,WindSpeedMPH,WindSpeedGustMPH,Humidity,HourlyPrecipIn,Conditions,Clouds,dailyrainin,SoftwareType,DateUTC
2013-04-01 00:14:00,54.1,-44.4,29.70,ESE,112,0.0,-999.0,1,-99.99,,,0.00,Acu-Link.com,2013-04-01 05:14:00,
2013-04-01 00:29:00,54.9,-44.0,29.70,NNE,22,0.0,-999.0,1,-99.99,,,0.00,Acu-Link.com,2013-04-01 05:29:00,
2013-04-01 00:44:00,54.9,-44.0,29.71,WNW,292,0.0,-999.0,1,-99.99,,,0.00,Acu-Link.com,2013-04-01 05:44:00,
2013-04-01 00:59:00,54.9,-44.0,29.71,West,270,0.0,-999.0,1,-99.99,,,0.00,Acu-Link.com,2013-04-01 05:59:00,
2013-04-01 01:14:00,55.2,-43.8,29.70,WNW,292,0.0,-999.0,1,-99.99,,,0.00,Acu-Link.com,2013-04-01 06:14:00,
2013-04-01 01:29:00,55.2,-43.8,29.71,WNW,292,0.0,-999.0,1,-99.99,,,0.00,Acu-Link.com,2013-04-01 06:29:00,
2013-04-01 01:45:00,55.2,-43.8,29.70,North,0,0.0,-999.0,1,-99.99,,,0.00,Acu-Link.com,2013-04-01 06:45:00,
2013-04-01 02:00:00,55.4,-43.7,29.70,NNE,22,0.0,-999.0,1,-99.99,,,0.00,Acu-Link.com,2013-04-01 07:00:00,
2013-04-01 02:15:00,55.6,-43.5,29.70,WNW,292,0.0,-999.0,1,-99.99,,,0.00,Acu-Link.com,2013-04-01 07:15:00,
2013-04-01 02:30:00,55.6,-43.5,29.70,NNW,337,0.0,-999.0,1,-99.99,,,0.00,Acu-Link.com,2013-04-01 07:30:00,
2013-04-01 02:45:00,55.6,-43.5,29.70,West,270,0.0,-999.0,1,-99.99,,,0.00,Acu-Link.com,2013-04-01 07:45:00,
2013-04-01 03:00:00,55.9,-43.3,29.70,WNW,292,0.0,-999.0,1,-99.99,,,0.00,Acu-Link.com,2013-04-01 08:00:00,
2013-04-01 03:16:00,55.9,-43.3,29.70,West,270,0.0,-999.0,1,-99.99,,,0.00,Acu-Link.com,2013-04-01 08:16:00,
2013-04-01 03:31:00,55.9,-43.3,29.70,West,270,0.0,-999.0,1,-99.99,,,0.00,Acu-Link.com,2013-04-01 08:31:00,
2013-04-01 04:01:00,55.6,-43.5,29.70,WNW,292,0.0,-999.0,1,-99.99,,,0.00,Acu-Link.com,2013-04-01 09:01:00,
2013-04-01 04:16:00,55.4,-43.7,29.71,WNW,292,0.0,-999.0,1,-99.99,,,0.00,Acu-Link.com,2013-04-01 09:16:00,
2013-04-01 04:31:00,54.5,-44.2,29.71,WNW,292,0.0,-999.0,1,-99.99,,,0.00,Acu-Link.com,2013-04-01 09:31:00,
2013-04-01 05:17:00,54.0,-44.5,29.73,NW,315,0.0,-999.0,1,-99.99,,,0.00,Acu-Link.com,2013-04-01 10:17:00,
2013-04-01 05:32:00,54.1,-44.4,29.73,SE,135,0.0,-999.0,1,-99.99,,,0.00,Acu-Link.com,2013-04-01 10:32:00,
2013-04-01 05:47:00,54.1,-44.4,29.75,SE,135,0.0,-999.0,1,-99.99,,,0.00,Acu-Link.com,2013-04-01 10:47:00,
2013-04-01 06:02:00,54.5,-44.2,29.75,NNW,337,0.0,-999.0,1,-99.99,,,0.00,Acu-Link.com,2013-04-01 11:02:00,
2013-04-01 06:19:00,54.5,-44.2,29.76,NNE,22,0.0,-999.0,1,-99.99,,,0.01,Acu-Link.com,2013-04-01 11:19:00,
2013-04-01 06:34:00,54.0,-44.5,29.76,NE,45,0.0,-999.0,1,-99.99,,,0.01,Acu-Link.com,2013-04-01 11:34:00,
2013-04-01 06:49:00,53.2,-45.0,29.77,WNW,292,0.0,-999.0,1,-99.99,,,0.01,Acu-Link.com,2013-04-01 11:49:00,
2013-04-01 07:04:00,53.8,-44.6,29.78,West,270,0.0,-999.0,1,-99.99,,,0.01,Acu-Link.com,2013-04-01 12:04:00,
2013-04-01 07:19:00,54.5,-44.2,29.78,NNW,337,0.0,-999.0,1,-99.99,,,0.01,Acu-Link.com,2013-04-01 12:19:00,
2013-04-01 07:34:00,55.0,-43.9,29.79,West,270,0.0,-999.0,1,-99.99,,,0.01,Acu-Link.com,2013-04-01 12:34:00,
2013-04-01 07:53:00,55.9,-43.3,29.79,WSW,247,0.0,-999.0,1,-99.99,,,0.01,Acu-Link.com,2013-04-01 12:53:00,
2013-04-01 08:08:00,56.3,-43.1,29.80,NNW,337,0.0,-999.0,1,-99.99,,,0.01,Acu-Link.com,2013-04-01 13:08:00,
2013-04-01 08:23:00,56.7,-42.9,29.81,North,0,0.0,-999.0,1,-99.99,,,0.01,Acu-Link.com,2013-04-01 13:23:00,
2013-04-01 08:38:00,56.8,-42.8,29.81,West,270,0.0,-999.0,1,-99.99,,,0.01,Acu-Link.com,2013-04-01 13:38:00,
2013-04-01 08:53:00,58.1,-42.0,29.82,NE,45,0.0,-999.0,1,-99.99,,,0.01,Acu-Link.com,2013-04-01 13:53:00,
2013-04-01 09:09:00,58.6,2.2,29.82,West,270,0.0,-999.0,10,-99.99,,,0.01,Acu-Link.com,2013-04-01 14:09:00,
2013-04-01 09:24:00,59.4,-41.2,29.83,NNE,22,0.0,-999.0,1,-99.99,,,0.01,Acu-Link.com,2013-04-01 14:24:00,
2013-04-01 09:39:00,60.4,-40.6,29.82,NNE,22,0.0,-999.0,1,-99.99,,,0.01,Acu-Link.com,2013-04-01 14:39:00,
2013-04-01 09:54:00,61.0,-40.2,29.83,West,270,0.0,-999.0,1,-99.99,,,0.01,Acu-Link.com,2013-04-01 14:54:00,
2013-04-01 10:09:00,60.8,-40.4,29.84,West,270,0.0,-999.0,1,-99.99,,,0.01,Acu-Link.com,2013-04-01 15:09:00,
2013-04-01 10:24:00,61.2,25.1,29.84,NE,45,0.0,-999.0,25,-99.99,,,0.01,Acu-Link.com,2013-04-01 15:24:00,
2013-04-01 10:39:00,63.5,-38.7,29.84,ESE,112,0.0,-999.0,1,-99.99,,,0.01,Acu-Link.com,2013-04-01 15:39:00,
2013-04-01 10:54:00,64.0,-38.4,29.84,NNW,337,0.0,-999.0,1,-99.99,,,0.01,Acu-Link.com,2013-04-01 15:54:00,
2013-04-01 11:09:00,65.8,65.2,29.85,NNW,337,0.0,-999.0,98,-99.99,,,0.01,Acu-Link.com,2013-04-01 16:09:00,
2013-04-01 11:25:00,66.7,-36.8,29.85,North,0,0.0,-999.0,1,-99.99,,,0.01,Acu-Link.com,2013-04-01 16:25:00,
2013-04-01 11:40:00,67.6,-36.3,29.84,NNW,337,0.0,-999.0,1,-99.99,,,0.01,Acu-Link.com,2013-04-01 16:40:00,
2013-04-01 11:55:00,69.8,-34.9,29.84,NNE,22,0.0,-999.0,1,-99.99,,,0.01,Acu-Link.com,2013-04-01 16:55:00,
2013-04-01 12:10:00,71.2,-34.1,29.84,NNW,337,0.0,-999.0,1,-99.99,,,0.01,Acu-Link.com,2013-04-01 17:10:00,
2013-04-01 12:25:00,70.7,-34.4,29.83,NE,45,0.0,-999.0,1,-99.99,,,0.01,Acu-Link.com,2013-04-01 17:25:00,
2013-04-01 12:40:00,72.3,-33.4,29.83,WNW,292,0.0,-999.0,1,-99.99,,,0.01,Acu-Link.com,2013-04-01 17:40:00,
2013-04-01 12:55:00,73.0,-33.0,29.82,NW,315,0.0,-999.0,1,-99.99,,,0.01,Acu-Link.com,2013-04-01 17:55:00,
2013-04-01 13:10:00,74.1,-32.4,29.82,ENE,67,0.0,-999.0,1,-99.99,,,0.01,Acu-Link.com,2013-04-01 18:10:00,
2013-04-01 13:25:00,75.2,-31.7,29.81,NNE,22,0.0,-999.0,1,-99.99,,,0.01,Acu-Link.com,2013-04-01 18:25:00,
2013-04-01 13:40:00,73.0,-33.0,29.81,NNW,337,0.0,-999.0,1,-99.99,,,0.01,Acu-Link.com,2013-04-01 18:40:00,
2013-04-01 13:56:00,76.5,-30.9,29.80,NW,315,0.0,-999.0,1,-99.99,,,0.01,Acu-Link.com,2013-04-01 18:56:00,
2013-04-01 15:11:00,75.2,-31.7,29.76,WSW,247,0.0,-999.0,1,-99.99,,,0.01,Acu-Link.com,2013-04-01 20:11:00,
2013-04-01 15:26:00,75.9,-31.3,29.76,SSW,202,4.7,-999.0,1,-99.99,,,0.01,Acu-Link.com,2013-04-01 20:26:00,
2013-04-01 15:41:00,76.8,-30.7,29.75,NE,45,0.0,-999.0,1,-99.99,,,0.01,Acu-Link.com,2013-04-01 20:41:00,
2013-04-01 15:56:00,79.3,-29.3,29.75,NE,45,0.0,-999.0,1,-99.99,,,0.01,Acu-Link.com,2013-04-01 20:56:00,
2013-04-01 16:12:00,75.9,-31.3,29.75,SW,225,2.2,-999.0,1,-99.99,,,0.01,Acu-Link.com,2013-04-01 21:12:00,
2013-04-01 16:27:00,75.6,-31.5,29.75,West,270,0.0,-999.0,1,-99.99,,,0.01,Acu-Link.com,2013-04-01 21:27:00,
2013-04-01 16:42:00,77.9,-30.1,29.75,West,270,0.0,-999.0,1,-99.99,,,0.01,Acu-Link.com,2013-04-01 21:42:00,
2013-04-01 16:57:00,79.2,-29.3,29.76,SE,135,0.0,-999.0,1,-99.99,,,0.01,Acu-Link.com,2013-04-01 21:57:00,
2013-04-01 17:12:00,75.9,-31.3,29.75,West,270,0.0,-999.0,1,-99.99,,,0.01,Acu-Link.com,2013-04-01 22:12:00,
2013-04-01 17:27:00,75.9,-31.3,29.76,West,270,0.0,-999.0,1,-99.99,,,0.01,Acu-Link.com,2013-04-01 22:27:00,
2013-04-01 17:44:00,76.1,-31.2,29.76,NW,315,0.0,-999.0,1,-99.99,,,0.01,Acu-Link.com,2013-04-01 22:44:00,
2013-04-01 17:59:00,79.2,-29.3,29.76,NNE,22,0.0,-999.0,1,-99.99,,,0.01,Acu-Link.com,2013-04-01 22:59:00,
2013-04-01 18:14:00,78.8,-29.6,29.75,NNE,22,0.0,-999.0,1,-99.99,,,0.01,Acu-Link.com,2013-04-01 23:14:00,
2013-04-01 18:29:00,75.0,-31.8,29.76,North,0,0.0,-999.0,1,-99.99,,,0.01,Acu-Link.com,2013-04-01 23:29:00,
2013-04-01 18:44:00,73.4,-32.8,29.75,WNW,292,0.0,-999.0,1,-99.99,,,0.01,Acu-Link.com,2013-04-01 23:44:00,
2013-04-01 18:59:00,70.5,-34.5,29.76,West,270,0.0,-999.0,1,-99.99,,,0.01,Acu-Link.com,2013-04-01 23:59:00,
2013-04-01 19:14:00,67.6,-36.3,29.76,WNW,292,0.0,-999.0,1,-99.99,,,0.01,Acu-Link.com,2013-04-02 00:14:00,
2013-04-01 19:30:00,64.6,-38.1,29.76,West,270,0.0,-999.0,1,-99.99,,,0.01,Acu-Link.com,2013-04-02 00:30:00,
2013-04-01 19:45:00,62.4,-39.4,29.77,WNW,292,0.0,-999.0,1,-99.99,,,0.01,Acu-Link.com,2013-04-02 00:45:00,
2013-04-01 20:00:00,61.0,-40.2,29.77,NW,315,0.0,-999.0,1,-99.99,,,0.01,Acu-Link.com,2013-04-02 01:00:00,
2013-04-01 20:15:00,59.5,47.7,29.78,NW,315,0.0,-999.0,65,-99.99,,,0.01,Acu-Link.com,2013-04-02 01:15:00,
2013-04-01 20:30:00,58.3,-5.5,29.78,NW,315,0.0,-999.0,7,-99.99,,,0.01,Acu-Link.com,2013-04-02 01:30:00,
2013-04-01 20:45:00,57.6,-42.3,29.78,NNW,337,0.0,-999.0,1,-99.99,,,0.01,Acu-Link.com,2013-04-02 01:45:00,
2013-04-01 21:00:00,56.7,-42.9,29.78,NW,315,0.0,-999.0,1,-99.99,,,0.01,Acu-Link.com,2013-04-02 02:00:00,
2013-04-01 21:31:00,59.0,-41.5,29.79,WNW,292,0.0,-999.0,1,-99.99,,,0.01,Acu-Link.com,2013-04-02 02:31:00,
2013-04-01 21:46:00,58.8,-41.6,29.80,NNW,337,0.0,-999.0,1,-99.99,,,0.01,Acu-Link.com,2013-04-02 02:46:00,
2013-04-01 22:31:00,59.2,-41.3,29.81,NNE,22,0.0,-999.0,1,-99.99,,,0.01,Acu-Link.com,2013-04-02 03:31:00,
2013-04-01 22:47:00,59.2,-41.3,29.81,NE,45,0.0,-999.0,1,-99.99,,,0.01,Acu-Link.com,2013-04-02 03:47:00,
2013-04-01 23:02:00,58.5,-41.8,29.81,NE,45,0.0,-999.0,1,-99.99,,,0.01,Acu-Link.com,2013-04-02 04:02:00,
2013-04-01 23:17:00,57.7,57.1,29.81,North,0,0.0,-999.0,98,-99.99,,,0.01,Acu-Link.com,2013-04-02 04:17:00,
2013-04-01 23:32:00,56.5,-43.0,29.82,WNW,292,0.0,-999.0,1,-99.99,,,0.01,Acu-Link.com,2013-04-02 04:32:00,
2013-04-01 23:47:00,55.4,13.8,29.82,WNW,292,0.0,-999.0,19,-99.99,,,0.01,Acu-Link.com,2013-04-02 04:47:00,